Regional Weather Roundup
Issued by NWS Midland/Odessa, TX

Skip options and go directly to product.
Home | Oldest Version | Previous Version | Current Version | All | Graphics & Text | Save Text | Print | Product List | Glossary On

Skip product version selection by date and time.   
863
ASUS44 KMAF 012210
RWRMAF
MIDLAND AREA WEATHER ROUNDUP
NATIONAL WEATHER SERVICE MIDLAND TX
500 PM CDT SAT OCT 01 2016

...IN SOUTHWEST TEXAS AND SOUTHEAST NEW MEXICO...

CITY           SKY/WX    TMP DP  RH WIND       PRES   REMARKS
ALPINE         PTSUNNY   74  59  58 S5        30.15F
ANDREWS        FAIR      82  57  42 S9        30.02F
ARTESIA        MOSUNNY   81  57  44 SE5       30.02S
BIG SPRING     SUNNY     83  56  40 S10       30.03F
CARLSBAD       SUNNY     84  57  39 S9        29.99S
DRYDEN           N/A     79  63  57 SE8       30.00F
FORT STOCKTON  PTSUNNY   85  59  41 W7        30.00F
GUAD PASS      SUNNY     80  53  39 W21       30.16S
HOBBS          MOSUNNY   82  57  42 SE6       30.04F
MARFA          CLOUDY    78  53  41 N6        30.13F
MIDLAND AIRPK  MOSUNNY   84  56  38 S8        30.01F
MIDLAND INTL   MOSUNNY   84  57  39 SE8       30.01F
ODESSA         SUNNY     83  57  41 S9        30.02F
PECOS          SUNNY     86  60  41 CALM      29.98S
PRESIDIO       FAIR      86  61  43 CALM      30.00F
SEMINOLE       SUNNY     82  58  43 SE7G16    30.03F
SNYDER           N/A     82  52  34 S9G20     30.02S
WINK           SUNNY     86  57  37 SE9       29.97F
$$
...OTHER STATIONS IN TEXAS...

CITY           SKY/WX    TMP DP  RH WIND       PRES   REMARKS
ABILENE        SUNNY     82  56  40 VRB6      30.01F
AMARILLO       PTSUNNY   82  56  40 S22       30.01S
AUSTIN         CLOUDY    78  56  46 E7        30.02F
BROWNSVILLE    SUNNY     86  64  47 NE14      29.95F
CORPUS CHRISTI CLOUDY    81  63  54 E8        29.99S
DALLAS FTW     MOSUNNY   83  48  29 S6        30.00F
DEL RIO        SUNNY     79  59  50 SE14      30.00F
EL PASO        MOSUNNY   85  43  22 W10       30.06F
HOUSTON INT    PTSUNNY   80  59  48 NE8       30.01F
LUBBOCK        MOSUNNY   82  55  39 S14G22    30.02S
SAN ANGELO     SUNNY     85  54  34 S7        30.00F
SAN ANTONIO    CLOUDY    78  52  40 CALM      30.03S
WACO           CLOUDY    79  54  41 S9        30.02F
WICHITA FALLS  NOT AVBL
$$
...OTHER LOCATIONS IN NEW MEXICO...

CITY           SKY/WX    TMP DP  RH WIND       PRES   REMARKS
ALAMAGORDO     SUNNY     81  50  34 SW8       30.08F
ALBUQUERQUE    MOSUNNY   79  41  25 W9        30.13F
CANNON AFB     SUNNY     84  46  26 W9        30.02F
CLOVIS         SUNNY     82  48  30 SW9       30.02F
HOLLOMAN AFB   SUNNY     81  50  33 W7        30.05F
ROSWELL        PTSUNNY   78  54  43 SW12      30.03F
RUIDOSO        CLOUDY    70  45  40 N12G21    30.24S
SANTA FE       PTSUNNY   74  35  24 VRB3      30.16S
TRUTH OR CONSE CLOUDY    80  45  28 VRB3      30.10S
TUCUMCARI      MOSUNNY   89  40  17 E8        29.97F
$$